CAPE
0 0 0 0 0 0 0 0 0 0 0 0 0 0 0 0 0 0 0 0 0 0 0 0 0 0 0 0 0 0 0 0 0 0 0 0 0 0 0 0 0 0 0 0
0 0 0 0 0 0 0 0 0 0 0 0 0 0 0 0 0 0 0 0 0 0 0 0 0 0 0 0 0 0 0 0 0 0 0 0 0 0 0 0 0 0 0 0
0 0 0 0 0 0 0 0 0 0 0 0 0 0 0 0 0 0 0 0 0 0 0 0 0 0 0 0 0 0 1 0 1 0 1 0 0 0 0 0 0 0 0 0
0 0 0 0 0 0 0 0 0 0 0 0 0 0 0 0 0 4 0 0 2 20 4 0 0 0 0 0 0 2 6 2 2 1 0 0 0 0 0 0 0 0 0 0
0 1 0 0 0 0 0 0 0 0 1 1 0 0 0 0 0 0 5 16 23 0 0 0 0 0 0 0 0 1 0 0 0 0 0 0 0 0 0 0 0 0 0 0
0 0 0 0 0 0 3 0 2 6 2 4 4 7 0 2 0 0 33 23 0 0 0 0 0 0 0 0 0 0 0 0 0 0 0 0 0 0 0 0 0 0 0 0
0 0 0 0 0 0 0 0 5 0 1 8 27 15 5 0 0 0 1 0 0 0 0 0 0 0 0 0 0 0 0 0 0 0 0 0 0 0 0 0 0 0 0 0
0 0 0 0 0 0 0 0 0 0 0 9 2 0 0 0 2 1 0 0 0 0 0 0 0 0 0 0 0 0 0 0 0 0 0 0 0 0 0 0 0 0 0 0
0 0 0 0 0 0 0 0 0 5 6 0 0 0 7 0 0 0 0 0 0 0 0 0 0 0 0 0 0 0 0 0 0 0 0 0 0 0 0 0 0 0 0 0
0 0 0 0 0 0 0 8 6 0 0 0 0 0 0 7 0 0 0 0 0 1 0 0 0 0 0 0 0 0 0 0 0 0 0 0 0 0 0 0 0 0 0 0
1 0 0 0 0 3 5 4 0 0 2 1 0 0 5 0 0 0 0 0 0 0 0 0 0 0 0 0 0 0 0 0 0 0 0 0 0 0 0 0 0 0 0 0
0 0 3 0 5 0 0 0 0 1 0 0 0 0 0 0 0 0 0 0 0 0 0 0 0 0 0 0 0 0 0 0 0 0 0 0 0 0 0 0 0 0 3 0
0 0 1 9 0 0 0 0 4 1 0 4 6 0 0 0 0 0 0 0 0 0 0 0 0 0 0 0 0 0 0 0 0 0 0 0 0 0 0 0 0 0 0 1
3 0 3 0 1 0 0 0 1 0 2 0 0 0 0 0 0 0 1 5 2 0 0 0 0 0 0 0 0 0 0 0 0 0 0 0 0 0 0 0 0 0 0 0
4 0 0 0 0 0 2 1 0 0 0 0 0 0 0 0 0 0 0 0 0 0 0 0 0 0 0 0 0 0 0 0 0 0 0 0 0 0 0 0 0 0 0 0
0 0 0 0 0 0 0 0 0 0 0 0 0 0 0 0 0 0 0 0 0 0 0 0 0 0 0 0 0 0 0 0 0 0 0 0 0 0 0 0 0 0 0 0
0 0 0 0 0 0 0 0 0 0 0 0 0 0 0 0 0 0 0 0 0 0 0 0 0 0 0 0 0 0 0 0 0 0 0 0 0 0 0 0 0 0 0 0
0 0 0 0 0 0 0 0 0 0 0 0 0 0 0 0 0 0 0 0 0 0 0 0 0 0 0 0 0 0 0 0 0 0 0 0 0 0 0 0 0 0 0 0
0 0 0 0 0 0 0 0 0 0 0 0 0 0 0 0 0 0 0 0 0 0 0 0 0 0 0 0 0 0 0 0 0 0 0 0 0 0 0 0 0 0 0 0
0 0 0 0 0 0 0 0 0 0 0 0 0 0 0 0 0 0 0 0 0 0 0 0 0 0 0 0 0 0 0 0 0 0 0 0 0 0 0 0 0 0 0 0
0 0 0 0 0 0 0 0 0 0 0 0 0 0 0 0 0 0 0 0 0 0 0 0 0 0 0 0 0 0 0 0 0 0 0 0 0 0 0 0 0 0 0 0
0 0 0 0 0 0 0 0 0 0 0 0 0 0 0 0 0 0 0 0 0 0 0 0 0 0 0 0 0 0 0 0 0 0 0 0 0 0 0 0 0 0 0 0
0 0 0 0 0 0 0 0 0 0 0 0 0 0 0 0 0 0 0 0 0 0 0 0 0 0 0 0 0 0 0 0 0 0 0 0 0 0 0 0 0 0 0 0
0 0 0 0 0 0 0 0 0 0 0 0 0 0 1 0 0 0 0 0 0 0 0 0 0 0 0 0 0 0 0 0 0 0 0 0 0 0 0 0 0 0 0 0
0 0 0 0 0 0 0 0 0 0 0 0 0 0 0 0 0 0 0 0 0 0 0 0 4 1 0 0 0 0 0 0 0 0 0 0 0 0 0 0 0 0 0 0
0 0 0 0 0 0 1 0 0 0 0 0 0 0 0 0 0 0 0 0 0 0 0 0 0 1 3 1 0 0 0 0 0 0 0 0 0 0 0 0 0 0 0 0
0 0 0 0 0 0 0 0 0 0 0 0 0 0 0 0 0 0 0 0 0 0 0 0 0 0 0 0 0 0 0 0 0 0 0 0 0 0 0 0 0 0 0 0
CIN
0 0 0 0 0 0 0 0 0 0 0 0 0 0 0 0 0 0 0 0 0 0 0 0 0 0 0 0 0 0 0 0 0 0 0 0 0 0 0 0 0 0 0 0
0 0 0 0 0 0 0 0 0 0 0 0 0 0 0 0 0 0 0 0 0 0 0 0 0 0 0 0 0 0 0 0 0 0 0 0 0 0 -20 0 0 0 0 0
0 0 -6 0 0 0 0 0 0 0 0 0 0 0 0 0 0 0 0 0 0 0 0 0 0 0 0 0 0 0 -5 0 -1 -1 -0 0 0 0 0 0 0 0 0 0
0 0 -0 0 0 0 0 0 0 0 0 0 0 0 0 0 -1 -4 0 0 -20 -20 -37 0 0 0 0 0 0 -4 -7 -11 -6 -14 -5 0 0 0 0 0 0 0 0 0
0 -1 0 0 0 0 0 0 0 0 -20 -32 0 0 0 0 -0 -1 -12 -13 -35 -3 0 0 0 0 0 0 0 -3 0 0 0 0 0 0 0 0 0 0 0 0 0 0
0 0 -1 0 0 0 -24 0 -32 -17 -17 -12 -12 -0 0 -8 0 0 -18 -71 0 0 0 0 0 0 0 0 0 0 0 0 0 0 0 0 0 0 0 0 0 0 0 0
0 0 0 0 0 0 0 0 -35 0 -13 -8 -2 -6 -10 0 0 0 -46 0 0 0 0 0 0 0 0 0 0 0 0 0 0 0 0 0 0 0 0 0 0 0 0 0
0 -1 0 0 0 0 0 0 0 0 0 -15 -26 0 0 0 -16 -62 0 0 0 0 0 -2 0 0 0 0 0 0 0 0 0 0 0 0 0 0 0 0 0 0 0 0
0 0 0 0 0 0 0 -1 0 -20 -20 -3 -2 0 -0 0 -4 0 0 0 0 0 0 0 0 0 0 0 0 0 0 0 0 0 0 0 0 0 0 0 0 0 0 0
-1 0 0 0 0 0 0 -29 -34 -13 0 0 0 0 0 -37 0 0 0 0 0 -1 -0 0 0 0 0 0 0 0 0 0 0 0 0 0 0 0 0 0 0 0 0 0
-2 0 0 0 -1 -32 -22 -15 0 0 -0 0 0 0 -39 0 0 0 0 0 0 0 0 0 0 0 0 0 0 0 0 0 0 0 0 0 0 0 0 0 0 0 0 -1
-0 0 -16 0 -26 -7 0 0 0 0 0 0 0 0 0 0 0 0 0 0 0 0 0 0 0 0 0 0 0 0 0 0 0 0 0 0 0 0 0 0 0 0 -0 -0
-0 -1 -14 -26 -1 0 0 -0 -2 -1 0 -6 -22 0 0 0 0 0 0 0 -1 0 0 0 0 0 0 0 0 0 0 0 0 0 0 0 0 0 0 0 0 0 -0 -0
-59 -1 -7 0 0 0 0 0 -1 -8 -20 -10 0 0 0 0 0 0 -9 -16 -27 -22 0 0 0 0 0 0 0 0 0 0 0 0 0 0 0 0 0 0 0 0 0 -0
-47 0 0 0 0 0 -2 -6 -12 0 0 0 0 0 0 0 0 0 0 0 0 0 0 0 0 0 0 0 0 0 0 0 0 0 0 0 0 0 0 0 0 0 0 0
0 0 0 0 0 0 0 0 0 0 0 0 0 0 0 0 0 0 0 0 0 0 0 0 0 0 0 0 0 0 0 0 0 0 0 0 0 0 0 0 0 0 0 0
0 0 0 0 0 0 0 0 0 0 0 0 0 0 0 0 0 0 0 0 0 0 0 0 0 0 0 0 0 0 0 0 0 0 0 0 0 0 0 0 0 0 0 0
0 0 0 0 0 0 0 0 0 0 0 0 0 0 0 0 0 0 0 0 0 0 0 0 -1 0 0 0 0 0 0 0 0 0 0 0 0 0 0 0 0 0 0 0
0 0 0 0 0 0 0 0 0 0 0 0 0 0 0 0 0 0 0 0 0 0 0 0 -0 -0 0 -4 0 0 0 0 0 0 0 0 0 0 0 0 0 0 0 0
0 0 0 0 0 0 0 0 0 0 0 0 0 0 0 0 0 0 0 0 -0 0 0 0 0 0 -16 0 0 0 0 0 0 0 0 0 0 0 0 0 0 0 0 0
0 0 0 0 0 0 0 0 0 0 0 0 0 0 0 0 0 0 0 0 0 0 0 0 0 0 0 0 0 0 0 0 0 0 0 0 0 0 0 0 0 0 0 0
0 0 0 0 0 0 0 0 0 0 0 0 0 0 0 0 0 0 0 -0 -0 0 0 0 0 0 0 0 0 0 0 0 0 0 0 0 0 0 0 0 0 0 0 0
0 0 0 0 0 0 0 0 0 0 0 0 0 0 0 0 0 0 0 0 0 0 0 0 0 0 0 0 0 0 -6 0 0 0 0 0 0 0 0 0 0 0 0 0
0 0 0 0 0 0 0 0 0 0 0 0 0 0 0 0 0 0 0 0 -1 -0 -5 0 -0 0 0 0 0 0 0 0 0 0 0 0 0 0 0 0 0 0 0 0
0 0 0 0 0 0 0 0 0 0 0 0 0 0 0 0 0 0 0 0 -2 -3 0 -2 -7 -15 0 0 0 0 0 0 0 0 0 0 0 0 0 0 0 0 0 0
0 0 0 0 0 0 -12 0 0 0 0 0 0 0 0 0 0 0 0 0 0 0 0 0 -6 -7 -9 -12 -7 -6 -4 0 0 0 0 0 0 0 0 0 0 0 0 0
0 0 0 0 0 0 0 0 0 0 0 0 0 0 0 0 0 0 0 0 0 0 0 0 0 0 0 -14 -14 -12 0 0 0 0 0 0 0 0 0 0 0 0 0 0
Wind_Speed
19 20 24 25 28 29 27 24 26 28 29 36 26 28 31 31 33 37 34 36 37 38 42 42 44 44 41 42 44 46 44 36 28 23 21 20 21 23 28 24 25 28 32 33
29 27 26 26 27 24 24 25 26 30 33 25 29 31 36 35 40 40 35 36 41 42 42 43 44 43 42 45 46 46 38 31 26 23 22 23 26 24 21 25 26 28 31 34
29 29 31 32 23 23 25 28 30 33 30 29 33 37 39 42 42 37 37 40 44 41 40 42 42 41 45 45 43 39 34 30 25 23 20 19 21 23 26 26 29 33 36 36
28 29 29 22 28 29 30 27 30 27 29 31 35 39 39 35 37 37 40 41 42 41 42 42 42 43 42 39 38 35 34 29 27 24 25 25 25 27 29 32 35 37 36 35
28 29 32 32 28 28 33 35 31 29 36 42 44 44 40 36 34 38 38 39 40 38 40 42 44 41 39 40 36 31 31 28 28 29 29 28 30 34 33 35 36 36 35 34
29 36 38 33 29 29 30 42 26 40 47 46 43 50 50 43 41 39 40 35 38 41 42 43 42 39 37 35 33 31 30 28 28 28 29 30 31 32 32 34 35 34 32 33
31 33 33 32 29 24 38 46 42 45 44 44 42 40 43 40 40 36 32 38 42 44 44 40 38 37 32 30 31 31 29 29 29 30 31 31 31 32 34 34 32 33 35 35
31 35 42 27 28 39 41 41 46 47 44 39 38 38 41 37 34 35 41 43 45 44 39 38 35 30 29 31 30 29 29 30 31 31 31 31 33 34 34 32 33 36 36 36
31 35 30 31 42 36 37 46 44 41 37 38 40 42 36 33 36 40 42 45 42 39 38 35 29 27 28 27 27 29 31 32 32 31 32 33 34 33 31 32 34 36 36 37
43 36 38 39 40 38 39 40 37 37 39 36 36 33 34 35 39 43 44 43 40 39 35 32 29 28 26 26 28 30 32 32 31 33 33 33 32 31 31 34 35 35 37 36
42 38 43 37 36 38 39 35 38 36 34 34 34 37 35 38 43 45 44 41 39 38 33 30 26 25 25 25 27 30 30 31 32 32 32 32 32 29 31 32 31 35 35 32
43 35 39 44 39 38 38 37 34 33 36 38 37 37 36 40 42 43 42 40 38 33 29 26 24 23 23 23 25 28 31 32 31 31 31 31 32 31 29 30 32 32 32 32
36 37 37 39 35 35 36 29 28 32 37 39 35 35 37 41 41 41 38 36 32 27 26 22 21 23 24 22 23 27 30 31 31 30 30 32 31 32 33 30 31 32 32 31
36 36 39 36 36 32 30 32 34 37 37 36 39 38 38 39 39 38 36 33 28 28 27 22 21 22 24 22 23 26 30 31 31 27 28 28 29 29 29 30 34 34 29 27
32 30 29 28 29 33 34 36 37 37 37 41 41 40 40 40 39 36 34 31 27 26 26 25 24 25 25 23 24 26 29 29 28 26 26 25 26 28 28 29 33 30 28 24
27 27 29 31 33 35 37 36 38 42 43 43 43 44 40 37 36 32 30 28 28 29 27 25 25 25 23 23 24 26 28 25 25 27 27 26 27 27 26 29 30 30 24 22
26 28 29 32 37 39 40 39 41 44 44 43 43 40 37 35 32 28 27 27 26 25 25 26 26 25 24 23 23 26 25 22 24 26 27 26 26 26 26 30 30 27 23 22
22 25 29 33 39 42 44 43 43 44 43 41 39 37 34 32 29 27 26 25 24 22 24 25 25 24 23 23 23 23 22 21 24 24 25 26 25 26 27 28 27 24 22 21
28 32 34 37 40 41 42 44 42 40 39 39 39 34 30 26 24 23 23 23 23 24 25 24 25 23 22 21 19 19 21 22 23 23 24 25 26 28 28 25 25 23 22 21
34 33 36 41 42 39 41 39 38 38 38 38 32 30 27 23 20 19 19 21 21 22 24 24 24 23 22 22 18 18 19 22 22 22 23 25 26 27 27 23 23 22 22 21
40 40 41 41 42 39 37 37 39 42 40 34 30 24 22 18 16 16 18 20 20 22 22 23 22 22 22 21 19 18 18 21 21 19 20 22 24 26 26 24 23 22 21 21
42 40 41 42 43 41 38 38 38 39 38 32 24 19 17 17 17 16 16 17 19 20 21 21 22 22 22 19 18 18 18 18 19 18 18 20 22 23 22 22 23 22 21 20
42 41 42 44 46 42 40 39 39 36 32 26 18 16 15 15 15 17 18 16 18 19 18 20 20 20 21 18 16 17 18 18 18 16 16 18 19 20 20 19 21 22 21 19
43 43 43 42 42 40 39 35 34 31 25 18 14 13 14 14 15 14 16 18 18 16 17 20 19 18 20 19 16 16 16 17 16 15 15 15 16 18 18 18 19 21 20 19
43 42 41 42 39 36 30 29 29 27 20 12 10 11 11 11 14 15 17 18 17 16 18 20 19 18 17 18 18 16 16 16 17 17 18 17 16 17 17 18 18 18 18 18
41 40 38 33 33 30 23 21 25 23 14 7 7 8 9 12 14 15 17 17 17 16 18 21 21 19 17 16 16 17 17 15 16 15 16 16 16 15 15 16 16 16 16 16
39 37 36 35 27 22 17 13 21 14 6 2 6 8 9 13 14 14 16 17 16 16 18 20 21 21 21 20 18 15 16 16 15 15 15 14 14 13 12 14 14 14 15 15
Wind_Direction
337 333 333 330 329 331 331 327 327 331 330 334 342 341 338 338 337 335 332 334 337 338 338 338 339 338 339 338 338 337 337 337 335 338 339 341 341 342 336 334 333 330 329 327
330 331 331 330 331 332 333 334 331 329 328 339 337 338 337 338 336 334 332 334 337 334 336 337 337 337 339 338 337 338 338 340 342 340 339 338 334 332 334 333 334 334 333 331
332 338 338 337 349 345 340 337 334 333 336 341 337 337 337 334 335 335 335 334 334 335 335 336 337 338 337 338 341 344 345 344 345 342 342 340 340 339 337 336 335 332 331 331
332 336 333 345 341 335 332 339 337 337 335 336 335 335 335 335 334 333 334 333 334 333 335 338 338 337 338 341 345 346 348 348 348 348 347 347 346 342 337 334 332 332 333 334
334 332 329 336 338 341 334 333 337 340 335 333 331 330 334 338 335 333 332 333 336 338 338 337 337 338 339 340 342 350 356 357 355 351 345 343 339 336 336 335 334 335 336 337
331 327 326 337 339 338 337 329 341 335 331 330 332 328 331 337 338 336 337 340 341 339 337 337 339 344 345 348 351 353 353 353 351 349 346 343 341 340 339 338 338 339 340 340
326 324 326 333 337 342 328 328 332 332 330 329 328 329 332 336 336 339 341 338 338 337 336 338 341 344 347 351 351 350 349 349 349 347 345 344 343 341 340 340 342 341 340 339
329 325 326 344 341 327 325 327 328 328 329 328 329 330 332 333 336 340 337 336 336 337 339 342 345 350 348 345 348 351 350 348 346 346 345 345 342 341 343 344 342 340 340 339
322 318 326 327 324 326 327 325 328 328 331 331 331 333 334 339 336 335 337 336 337 338 338 343 345 345 348 351 352 351 348 347 347 347 346 344 343 344 345 344 342 341 341 339
317 321 318 321 324 323 327 327 331 331 331 334 335 337 334 334 336 336 337 337 338 338 338 340 343 345 352 352 352 351 349 349 349 347 346 347 347 347 345 344 342 342 340 339
312 315 316 321 324 327 329 331 332 332 334 337 339 333 333 333 335 336 337 338 340 340 341 342 346 347 351 353 354 353 353 351 350 349 349 349 349 349 348 347 347 342 341 342
310 315 318 320 328 330 330 331 335 341 336 333 332 331 332 333 335 337 338 339 340 342 344 345 346 349 353 355 356 354 352 351 351 350 349 350 350 349 352 351 349 347 343 332
307 313 316 322 328 332 331 332 335 333 329 329 334 333 332 333 336 338 340 340 343 342 345 347 350 351 353 355 356 354 352 351 350 350 351 350 352 352 350 354 353 350 335 312
314 316 319 327 326 333 336 331 331 334 334 335 335 335 334 334 336 338 340 341 343 346 347 348 347 351 354 356 355 353 352 351 352 355 354 356 358 359 358 356 349 342 316 310
323 330 328 331 330 331 332 332 332 334 335 334 335 334 334 334 336 338 341 345 347 347 350 350 350 350 353 354 354 354 355 358 1 2 2 2 2 2 2 1 341 317 314 305
327 330 333 332 332 333 333 333 331 331 332 333 334 333 334 336 338 340 344 347 347 347 350 352 352 353 355 356 356 358 358 1 6 5 4 6 5 5 7 357 319 330 310 302
331 330 332 331 332 332 332 333 331 331 331 332 333 336 336 339 341 343 346 349 351 353 357 359 358 2 2 3 1 360 3 8 8 8 8 9 9 10 9 335 346 329 309 308
343 342 340 336 333 331 330 331 331 332 332 335 335 336 338 339 341 344 347 352 356 2 2 3 3 5 7 7 7 10 12 15 13 12 13 12 13 10 1 353 4 316 311 310
337 334 333 333 333 331 331 331 332 334 335 335 335 336 338 342 345 349 353 356 358 1 3 7 8 11 12 12 15 19 21 19 16 16 16 17 14 8 354 6 10 315 316 317
330 330 330 330 332 332 332 333 334 334 336 336 337 336 338 343 350 355 360 360 4 6 7 11 15 18 20 20 28 29 25 20 19 19 20 19 16 12 3 17 16 317 319 325
326 325 326 328 329 330 332 332 332 332 333 333 334 336 341 349 356 1 1 1 8 8 15 16 20 22 25 29 33 29 31 25 26 30 32 29 25 19 13 19 14 326 321 325
325 325 325 327 327 326 327 329 329 330 332 331 332 337 345 348 355 1 8 7 7 13 16 19 21 23 26 29 33 34 33 32 32 35 37 35 32 29 31 27 8 332 325 328
325 325 325 325 326 325 326 327 328 329 331 331 330 336 345 350 357 358 1 9 9 13 19 19 21 23 24 29 34 34 31 32 32 38 39 37 38 37 39 40 21 343 333 334
325 325 325 327 328 328 328 330 332 332 333 334 335 344 347 352 358 10 7 2 7 16 19 16 21 26 27 27 29 30 31 30 31 35 38 39 40 39 42 44 30 0 0 353
326 326 327 328 330 331 331 334 337 339 340 341 351 352 356 5 1 3 359 0 6 16 15 13 18 23 25 25 26 27 29 31 30 32 28 29 34 35 40 43 36 27 34 20
328 329 330 332 332 333 334 337 338 340 346 355 7 7 5 5 5 3 360 2 5 11 11 9 10 15 19 22 23 24 25 28 29 29 30 30 28 34 37 41 46 43 34 28
330 332 332 332 337 339 338 335 339 345 4 46 14 12 10 2 3 2 0 360 2 5 6 6 7 10 12 15 17 19 19 21 24 26 22 24 30 30 34 34 41 50 43 38